Weather Roundup
Issued by NWS

Home | Current Version | Previous Version | Text Only | Print | Product List | Glossary On
Versions: 1 2 3 4 5 6 7 8 9 10 11 12 13 14 15 16 17 18 19 20 21 22 23 24 25 26 27 28 29 30 31 32 33 34 35 36 37 38 39 40 41 42 43 44 45 46 47 48 49 50
943
NZUS93 KARX 221810
HRRWXR

CURRENT HOURLY OBSERVATIONS ACROSS
MUCH OF THE UPPER MISSISSIPPI VALLEY
NATIONAL WEATHER SERVICE LA CROSSE WI
1200 PM CST SUN JAN 22 2017


...SOUTHEAST MINNESOTA...


CITY           SKY/WX    TMP DP  RH WIND       PRES   REMARKS
ROCHESTER      CLOUDY    35  35 100 NW8       29.68F FOG     WCI  29
ROCHESTER/MAYO CLOUDY    36  37 100 NW6       29.69F WCI  32
WINONA         CLOUDY    36  36 100 NW3       29.69F FOG
AUSTIN         CLOUDY    36  34  93 NW6       29.69F FOG     WCI  31
ALBERT LEA     CLOUDY    36  36 100 NW6       29.71S FOG     WCI  31
DODGE CENTER   CLOUDY    34  34 100 CALM      29.69S FOG
PRESTON        FOG       34  33  96 W5        29.68F VSB 3/4 WCI  30
OWATONNA       CLOUDY    36  34  93 NW5       29.72R FOG     WCI  32
FARIBAULT      NOT AVBL
$$

...ELSEWHERE IN MINNESOTA...


CITY           SKY/WX    TMP DP  RH WIND       PRES   REMARKS
MINNEAPOLIS    CLOUDY    39  34  82 NW7       29.71F WCI  34
INTNL FALLS    CLOUDY    37  35  92 CALM      29.69S FOG
DULUTH         CLOUDY    36  35  96 NW5       29.66F WCI  32
RED WING       CLOUDY    37  36  93 W3        29.70S FOG
REDWOOD FALLS  CLOUDY    35  33  92 NW7       29.75S FOG     WCI  29
MANKATO        CLOUDY    35  35 100 NW9       29.73S FOG     WCI  28
WORTHINGTON    CLOUDY    36  35  96 NW9       29.75S WCI  29
FAIRMONT       CLOUDY    36  36 100 NW10      29.74S WCI  28
$$

...SOUTHWEST WISCONSIN...


CITY           SKY/WX    TMP DP  RH WIND       PRES   REMARKS
LA CROSSE      CLOUDY    40  36  86 N3        29.68S FOG
PRAIRIE DU CHI CLOUDY    37  36  96 CALM      29.68F FOG
BOSCOBEL       CLOUDY    40  36  86 CALM      29.68S
LONE ROCK      CLOUDY    39  36  89 W5        29.66F FOG
PLATTEVILLE    CLOUDY    38  38 100 W3        29.66F
FORT MC COY    CLOUDY    36  36 100 W5        29.68S WCI  32
CAMP DOUGLAS   CLOUDY    37  37 100 W7        29.65F FOG     WCI  32
MAUSTON-NEW LI CLOUDY    37  37  98 NW3       29.65F FOG
VIROQUA        CLOUDY    35  35 100 W3        29.66S VSB<1/4
WIS DELLS      FOG       37  37  99 CALM      29.64F VSB 1
$$

...ELSEWHERE IN WISCONSIN...


CITY           SKY/WX    TMP DP  RH WIND       PRES   REMARKS
MILWAUKEE      CLOUDY    46  39  76 NW3       29.63F
MADISON        CLOUDY    39  37  92 CALM      29.65F FOG
GREEN BAY      FOG       39  39 100 CALM      29.63F VSB 1/4
EAU CLAIRE     CLOUDY    36  34  92 NW5       29.67S WCI  32
BLACK RVR FLS  CLOUDY    37  37 100 W3        29.67S FOG
MEDFORD        FOG       34  34  99 CALM      29.63F VSB 1/2
WAUSAU         CLOUDY    35  35 100 W5        29.62F FOG     WCI  31
WIS RAPIDS     CLOUDY    36  36 100 NW5       29.65F WCI  32
MARSHFIELD     FOG       35  35 100 NW5       29.63F VSB 1/4 WCI  31
RICE LAKE      CLOUDY    36  36  99 NW5       29.69S WCI  32
$$

...NORTHEAST IOWA...


CITY           SKY/WX    TMP DP  RH WIND       PRES   REMARKS
WATERLOO       CLOUDY    36  32  85 NW8       29.70S WCI  30
DUBUQUE        CLOUDY    39  36  89 NW3       29.66F
DECORAH        CLOUDY    36  36 100 NW7       29.67S FOG     WCI  30
MASON CITY     CLOUDY    34  34 100 NW9       29.72S FOG     WCI  27
CHARLES CITY   CLOUDY    36  36 100 NW7       29.70S FOG     WCI  30
OELWEIN        CLOUDY    34  34 100 NW7       29.69S FOG     WCI  28
$$

...ELSEWHERE IN IOWA...


CITY           SKY/WX    TMP DP  RH WIND       PRES   REMARKS
DES MOINES     CLOUDY    37  34  89 NW10      29.72F FOG     WCI  30
IOWA CITY      CLOUDY    37  34  89 NW7       29.70F WCI  32
FORT DODGE     CLOUDY    36  32  87 NW5       29.74S WCI  32
MARSHALLTOWN   CLOUDY    36  35  96 N12       29.70S WCI  28
CEDAR RAPIDS   CLOUDY    34  33  96 NW8       29.68F FOG     WCI  27
$$

...NORTHERN ILLINOIS...


CITY           SKY/WX    TMP DP  RH WIND       PRES   REMARKS
CHICAGO-OHARE  CLOUDY    45  39  79 CALM      29.62F
CHICAGO-MIDWAY CLOUDY    43  40  89 NE5       29.62F FOG
MOLINE         CLOUDY    41  36  82 W6        29.65F
ROCKFORD       CLOUDY    40  36  86 N7        29.66F FOG
PEORIA         CLOUDY    46  40  79 VRB7      29.62F
$$

NOTE: "FAIR" INDICATES FEW OR NO CLOUDS BELOW 12,000 FEET WITH NO
SIGNIFICANT WEATHER AND/OR OBSTRUCTIONS TO VISIBILITY. WIND
SPEEDS ARE IN MILES-PER-HOUR.




USA.gov is the U.S. government's official web portal to all federal, state and local government web resources and services.